Wetterdaten: aktuell Montag, 18.01.2021 20:05
Datum Zeit Temp. A. Feuchte A. Regen Windböen
18.01.2021 20:05 2,4 °C 81 % 0,0 l/m² 6,4 km/h (2 Bft)
18.01.2021 19:05 2,4 °C 81 % 0,0 l/m² 8,0 km/h (2 Bft)
18.01.2021 18:05 2,6 °C 80 % 0,0 l/m² 17,7 km/h (3 Bft)
18.01.2021 17:05 2,9 °C 79 % 0,0 l/m² 9,7 km/h (2 Bft)
18.01.2021 16:05 3,2 °C 80 % 0,0 l/m² 9,7 km/h (2 Bft)
18.01.2021 15:05 3,4 °C 79 % 0,0 l/m² 11,3 km/h (2 Bft)
18.01.2021 14:05 3,6 °C 79 % 0,0 l/m² 14,5 km/h (3 Bft)
18.01.2021 13:05 3,6 °C 78 % 0,0 l/m² 6,4 km/h (2 Bft)
18.01.2021 12:05 3,5 °C 80 % 0,0 l/m² 11,3 km/h (2 Bft)
18.01.2021 11:05 2,7 °C 87 % 0,0 l/m² 6,4 km/h (2 Bft)
18.01.2021 10:05 2,4 °C 89 % 0,0 l/m² 8,0 km/h (2 Bft)
18.01.2021 09:05 1,8 °C 89 % 0,0 l/m² 1,6 km/h (1 Bft)
18.01.2021 08:05 2,1 °C 88 % 0,0 l/m² 3,2 km/h (1 Bft)
18.01.2021 07:05 2,1 °C 89 % 0,0 l/m² 6,4 km/h (2 Bft)
18.01.2021 06:05 1,9 °C 90 % 0,0 l/m² 11,3 km/h (2 Bft)
18.01.2021 05:05 2,0 °C 91 % 0,0 l/m² 9,7 km/h (2 Bft)
18.01.2021 04:05 2,0 °C 92 % 0,0 l/m² 6,4 km/h (2 Bft)
18.01.2021 03:05 1,6 °C 93 % 0,0 l/m² 4,8 km/h (1 Bft)
18.01.2021 02:05 1,4 °C 93 % 0,0 l/m² 0,0 km/h (0 Bft)
18.01.2021 01:05 1,5 °C 93 % 0,0 l/m² 3,2 km/h (1 Bft)
18.01.2021 00:05 1,7 °C 93 % 0,0 l/m² 9,7 km/h (2 Bft)
18.01.2021 00:00 1,8 °C 93 % 0,0 l/m² 3,2 km/h (1 Bft)
_ Min-Zeit 02:25 12:35 - 00:20
Minimum _ 1,3 °C 78 % - 0,0 km/h (0 Bft)
_ Max-Zeit 12:30 02:40 00:00 17:20
Maximum _ 3,7 °C 94 % 0,0 l/m² 22,5 km/h
S-SO (4 Bft)
Durchschnitt _ 2,4 °C 86 % #0,0 l/m² 8,4 km/h (2 Bft)